Flag for Gambia Weather past 2 weeks in Serekunda, Gambia

Now
68 °F

Clear.


Feels Like: 68 °F
Forecast: N/A
Wind: 8 mph from North

Location: Banjul / Yundum

Current Time: Feb 1, 2015 at 10:00:11 PM

Latest Report: Feb 1, 2015 at 9:00 PM


Visibility: 10 mi

Pressure: 29.86 "Hg

Humidity: 78%

Dew point: 61 °F

Location of SerekundaLocation

Historic Weather in Serekunda — Graph

°F

Serekunda temperature yesterday

Maximum temperature yesterday: 91 °F (at 2:00 PM)
Minimum temperature yesterday: 64 °F (at 6:00 AM)
Average temperature yesterday: 75 °F

Past Weeks' High & Low Weather Summary

 TemperatureHumidityPressure
High93 °F (Jan 18, 3:00 PM)78% (Jan 19, 10:00 PM)32.52 "Hg (Jan 19, 10:00 PM)
Low50 °F (Jan 29, 7:00 AM)6% (Jan 30, 2:00 PM)29.77 "Hg (Jan 25, 4:00 PM)
Average75 °F41%29.90 "Hg
* Reported Jan 17 8:00 PM — Feb 1 8:00 PM, Serekunda, Weather by CustomWeather, © 2014

Note: Actual official high and low records may vary slightly from our data, if they occured in-between our weather recording intervals... More about our weather records

Advertising

Serekunda weather history for previous 24 hours

 ConditionsComfort  
Time TempWeatherWind HumidityBarometerVisibility
8:00 PM
Feb 1
68 °FClear.6 mph78%29.86 "Hg10 mi
7:00 PM73 °FSunny.12 mph61%29.86 "Hg10 mi
6:00 PM81 °FSunny.12 mph39%29.86 "Hg10 mi
5:00 PM84 °FSunny.13 mph35%29.83 "Hg10 mi
4:00 PM86 °FSunny.10 mph24%29.83 "Hg10 mi
3:00 PM88 °FSunny.15 mph18%29.86 "Hg10 mi
2:00 PM86 °FSunny.10 mph17%29.89 "Hg10 mi
1:00 PM81 °FSunny.12 mph21%29.89 "Hg10 mi
12:00 PM81 °FSunny.13 mph26%29.92 "Hg10 mi
11:00 AM77 °FSunny.15 mph28%29.95 "Hg10 mi
10:00 AM72 °FSunny.12 mph53%29.92 "Hg10 mi
9:00 AM68 °FSunny.12 mph46%29.92 "Hg10 mi
8:00 AM64 °FSunny.9 mph56%29.92 "Hg10 mi
7:00 AM64 °FClear.6 mph60%29.89 "Hg10 mi
6:00 AM64 °FClear.7 mph56%29.89 "Hg10 mi
5:00 AM59 °FClear.3 mph68%29.89 "Hg10 mi
4:00 AM64 °FClear.6 mph64%29.89 "Hg10 mi
2:00 AM66 °FClear.9 mph60%29.89 "Hg10 mi
1:00 AM68 °FClear.8 mph56%29.92 "Hg10 mi
12:00 AM66 °FClear.7 mph64%29.92 "Hg10 mi
11:00 PM
Jan 31
68 °FClear.7 mph64%29.92 "Hg10 mi
10:00 PM68 °FClear.7 mph64%29.92 "Hg10 mi
Weather by CustomWeather, © 2014

See weather overviewHow to use our weather pages